Home   Weather   Chelyabinsk   Past weeks
Flag for Russia

Past Weather in Chelyabinsk, Russia — Yesterday and Last 2 Weeks

Now
68 °F

Fog.


Feels Like: 68 °F
Forecast: 85 / 67 °F
Wind: 3 mph from Southeast

Location: Chelyabinsk-Balandino

Current Time: Jul 19, 2019 at 7:40:30 am

Latest Report: Jul 19, 2019 at 7:00 am


Visibility: 3 mi

Pressure: 29.83 "Hg

Humidity: 73%

Dew Point: 59 °F

Location of ChelyabinskLocation

Past Weather in Chelyabinsk — Graph

°F

Chelyabinsk Temperature Yesterday

Maximum temperature yesterday: 82 °F (at 6:00 pm)
Minimum temperature yesterday: 59 °F (at 1:30 am)
Average temperature yesterday: 70 °F

High & Low Weather Summary for the Past Weeks

 TemperatureHumidityPressure
High93 °F (Jul 13, 1:00 pm)100% (Jul 8, 12:00 am)29.95 "Hg (Jul 8, 12:00 am)
Low50 °F (Jul 9, 1:30 am)26% (Jul 13, 3:00 pm)29.42 "Hg (Jul 15, 5:30 pm)
Average69 °F63%29.74 "Hg
* Reported Jul 4 6:00 am — Jul 19 6:00 am, Chelyabinsk. Weather by CustomWeather, © 2019

Note: Actual official high and low records may vary slightly from our data, if they occured in-between our weather recording intervals... More about our weather records

Advertising

Chelyabinsk Weather History for the Previous 24 Hours

Scroll right to see more
 ConditionsComfort  
Time TempWeatherWind HumidityBarometerVisibility
6:00 am
Fri, Jul 19
64 °FFog.3 mph83%29.83 "Hg3 mi
5:30 am66 °FFog.3 mph73%29.83 "Hg3 mi
5:00 am63 °FFog.1 mph83%29.83 "Hg3 mi
4:30 am61 °FFog.3 mph88%29.83 "Hg3 mi
4:00 am63 °FFog.3 mph83%29.80 "Hg3 mi
3:30 am66 °FFog.1 mph73%29.83 "Hg3 mi
3:00 am66 °FFog.6 mph73%29.83 "Hg3 mi
2:30 am64 °FFog.3 mph78%29.83 "Hg3 mi
2:00 am66 °FPassing clouds.3 mph73%29.83 "HgN/A
1:30 am68 °FPassing clouds.3 mph73%29.83 "HgN/A
1:00 am68 °FPassing clouds.6 mph73%29.83 "HgN/A
12:30 am68 °FPassing clouds.3 mph73%29.83 "HgN/A
12:00 am64 °FPassing clouds.3 mph83%29.83 "HgN/A
11:30 pm
Thu, Jul 18
66 °FPassing clouds.1 mph78%29.83 "HgN/A
11:00 pm68 °FPassing clouds.1 mph73%29.83 "HgN/A
10:30 pm68 °FPassing clouds.1 mph73%29.83 "HgN/A
10:00 pm70 °FScattered clouds.3 mph73%29.83 "HgN/A
9:30 pm72 °FSunny.1 mph69%29.83 "Hg10 mi
9:00 pm73 °FSunny.3 mph65%29.83 "Hg10 mi
8:30 pm75 °FSunny.3 mph65%29.83 "Hg10 mi
8:00 pm77 °FSunny.3 mph57%29.83 "Hg10 mi
7:30 pm79 °FSunny.6 mph51%29.83 "Hg10 mi
7:00 pm81 °FSunny.1 mph48%29.83 "Hg10 mi
6:00 pm82 °FPassing clouds.3 mph48%29.86 "HgN/A
5:30 pm81 °FPassing clouds.6 mph48%29.86 "HgN/A
5:00 pm81 °FPassing clouds.8 mph48%29.86 "HgN/A
4:30 pm81 °FPassing clouds.10 mph48%29.86 "HgN/A
4:00 pm81 °FPassing clouds.13 mph45%29.86 "HgN/A
3:30 pm81 °FPassing clouds.8 mph42%29.89 "HgN/A
3:00 pm81 °FPassing clouds.8 mph45%29.89 "HgN/A
2:30 pm79 °FPassing clouds.6 mph51%29.89 "HgN/A
2:00 pm79 °FPassing clouds.6 mph51%29.89 "HgN/A
1:30 pm77 °FPassing clouds.6 mph51%29.89 "HgN/A
1:00 pm77 °FPassing clouds.6 mph54%29.89 "HgN/A
12:30 pm75 °FPassing clouds.3 mph61%29.92 "HgN/A
12:00 pm75 °FPassing clouds.6 mph57%29.92 "HgN/A
11:30 am72 °FPassing clouds.3 mph61%29.92 "HgN/A
11:00 am73 °FPassing clouds.3 mph61%29.92 "HgN/A
10:30 am70 °FPassing clouds.3 mph64%29.92 "HgN/A
10:00 am70 °FScattered clouds.3 mph64%29.95 "Hg4 mi
9:30 am70 °FScattered clouds.6 mph69%29.95 "Hg3 mi
9:00 am68 °FScattered clouds.3 mph73%29.95 "Hg3 mi
8:30 am66 °FFog.1 mph78%29.95 "Hg3 mi
8:00 am63 °FFog.1 mph94%29.95 "Hg3 mi
7:30 am63 °FFog.3 mph88%29.95 "Hg3 mi
7:00 am63 °FFog.3 mph88%29.95 "Hg3 mi
Weather by CustomWeather, © 2019

See weather overview